| time (UTC) | temp C | wind direction | speed KPH | gust KPH | rain 1hr cm | rain 24hr cm | rain mn cm | humidity % | barometer mb |
| 20260507160005 | 15 | 203 | 19.3 | 24.1 | 0.00 | 0.00 | 0.00 | 66 | 1013.5 |
| 20260507155002 | 15 | 248 | 20.9 | 29.0 | 0.00 | 0.00 | 0.00 | 65 | 1013.6 |
| 20260507154003 | 15 | 225 | 19.3 | 25.7 | 0.00 | 0.00 | 0.00 | 65 | 1013.8 |
| 20260507153002 | 15 | 270 | 8.0 | 14.5 | 0.00 | 0.00 | 0.00 | 66 | 1013.9 |
| 20260507152002 | 14 | 225 | 16.1 | 25.7 | 0.00 | 0.00 | 0.00 | 65 | 1013.9 |
| 20260507151023 | 14 | 248 | 6.4 | 12.9 | 0.00 | 0.00 | 0.00 | 66 | 1014.0 |
| 20260507150027 | 14 | 203 | 12.9 | 19.3 | 0.00 | 0.00 | 0.00 | 67 | 1014.0 |
| 20260507145002 | 14 | 203 | 8.0 | 12.9 | 0.00 | 0.00 | 0.00 | 69 | 1014.1 |
| 20260507144002 | 13 | 225 | 14.5 | 20.9 | 0.00 | 0.00 | 0.00 | 69 | 1014.1 |
| 20260507143023 | 13 | 203 | 14.5 | 16.1 | 0.00 | 0.00 | 0.00 | 69 | 1014.1 |
| 20260507142002 | 13 | 225 | 16.1 | 22.5 | 0.00 | 0.00 | 0.00 | 71 | 1014.2 |
| 20260507141002 | 13 | 225 | 4.8 | 6.4 | 0.00 | 0.00 | 0.00 | 73 | 1014.3 |
| 20260507140008 | 12 | 248 | 12.9 | 17.7 | 0.00 | 0.00 | 0.00 | 72 | 1014.3 |
| 20260507135042 | 12 | 248 | 8.0 | 11.3 | 0.00 | 0.00 | 0.00 | 75 | 1014.4 |
| 20260507134002 | 11 | 248 | 8.0 | 11.3 | 0.00 | 0.00 | 0.00 | 75 | 1014.3 |
| 20260507133007 | 11 | 248 | 9.7 | 12.9 | 0.00 | 0.00 | 0.00 | 77 | 1014.5 |
| 20260507132002 | 11 | 248 | 8.0 | 9.7 | 0.00 | 0.00 | 0.00 | 76 | 1014.4 |
| 20260507131002 | 10 | 248 | 4.8 | 8.0 | 0.00 | 0.00 | 0.00 | 77 | 1014.5 |
| 20260507130007 | 10 | 203 | 6.4 | 11.3 | 0.00 | 0.00 | 0.00 | 77 | 1014.6 |
| 20260507125022 | 9 | 203 | 6.4 | 8.0 | 0.00 | 0.00 | 0.00 | 77 | 1014.8 |
| 20260507124023 | 9 | 225 | 8.0 | 11.3 | 0.00 | 0.00 | 0.00 | 78 | 1014.7 |
| 20260507123002 | 8 | 225 | 6.4 | 9.7 | 0.00 | 0.00 | 0.00 | 78 | 1014.6 |
| 20260507122002 | 8 | 203 | 6.4 | 9.7 | 0.00 | 0.00 | 0.00 | 79 | 1014.7 |
| 20260507121022 | 8 | 225 | 3.2 | 8.0 | 0.00 | 0.00 | 0.00 | 79 | 1014.6 |
| 20260507120022 | 7 | 203 | 4.8 | 8.0 | 0.00 | 0.00 | 0.00 | 80 | 1014.6 |
| 20260507115003 | 7 | 203 | 6.4 | 9.7 | 0.00 | 0.00 | 0.00 | 80 | 1014.5 |
| 20260507114002 | 7 | 225 | 3.2 | 4.8 | 0.00 | 0.00 | 0.00 | 81 | 1014.5 |
| 20260507113002 | 7 | 203 | 4.8 | 8.0 | 0.00 | 0.00 | 0.00 | 81 | 1014.4 |
| 20260507112003 | 7 | 203 | 6.4 | 8.0 | 0.00 | 0.00 | 0.00 | 80 | 1014.3 |
| 20260507111022 | 7 | 203 | 4.8 | 8.0 | 0.00 | 0.00 | 0.00 | 80 | 1014.3 |
| 20260507110007 | 7 | 203 | 3.2 | 6.4 | 0.00 | 0.00 | 0.00 | 79 | 1014.3 |
| 20260507105002 | 7 | 203 | 3.2 | 4.8 | 0.00 | 0.00 | 0.00 | 79 | 1014.4 |
| 20260507104002 | 7 | 203 | 4.8 | 6.4 | 0.00 | 0.00 | 0.00 | 79 | 1014.3 |
| 20260507103002 | 7 | 225 | 3.2 | 4.8 | 0.00 | 0.00 | 0.00 | 79 | 1014.4 |
| 20260507102002 | 7 | 225 | 4.8 | 6.4 | 0.00 | 0.00 | 0.00 | 79 | 1014.4 |
| 20260507101002 | 7 | 225 | 3.2 | 6.4 | 0.00 | 0.00 | 0.00 | 79 | 1014.2 |
| 20260507100009 | 7 | 225 | 4.8 | 6.4 | 0.00 | 0.00 | 0.00 | 79 | 1014.4 |
| 20260507095024 | 7 | 225 | 3.2 | 4.8 | 0.00 | 0.00 | 0.00 | 79 | 1014.5 |
| 20260507094004 | 7 | 203 | 3.2 | 4.8 | 0.00 | 0.00 | 0.00 | 79 | 1014.5 |
| 20260507093004 | 7 | 225 | 3.2 | 6.4 | 0.00 | 0.00 | 0.00 | 78 | 1014.6 |
| 20260507092003 | 7 | 225 | 4.8 | 6.4 | 0.00 | 0.00 | 0.00 | 77 | 1014.6 |
| 20260507091003 | 7 | 248 | 6.4 | 6.4 | 0.00 | 0.00 | 0.00 | 77 | 1014.6 |
| 20260507090009 | 7 | 248 | 3.2 | 4.8 | 0.00 | 0.00 | 0.00 | 76 | 1014.6 |
| 20260507085003 | 7 | 203 | 3.2 | 8.0 | 0.00 | 0.00 | 0.00 | 75 | 1014.6 |
| 20260507084024 | 7 | 225 | 3.2 | 4.8 | 0.00 | 0.00 | 0.00 | 74 | 1014.6 |
| 20260507083024 | 7 | 248 | 4.8 | 9.7 | 0.00 | 0.00 | 0.00 | 74 | 1014.8 |
| 20260507082003 | 7 | 248 | 3.2 | 4.8 | 0.00 | 0.00 | 0.00 | 75 | 1014.8 |
| 20260507081003 | 7 | 248 | 3.2 | 6.4 | 0.00 | 0.00 | 0.00 | 75 | 1014.7 |
| 20260507080027 | 8 | 225 | 1.6 | 1.6 | 0.00 | 0.00 | 0.00 | 75 | 1014.6 |
| 20260507075003 | 7 | 225 | 1.6 | 3.2 | 0.00 | 0.00 | 0.00 | 76 | 1014.5 |
| 20260507074003 | 7 | 0.0 | 1.6 | 0.00 | 0.00 | 0.00 | 78 | 1014.5 | |
| 20260507073004 | 7 | 225 | 1.6 | 3.2 | 0.00 | 0.00 | 0.00 | 78 | 1014.6 |
| 20260507072003 | 8 | 225 | 1.6 | 1.6 | 0.00 | 0.00 | 0.00 | 77 | 1014.7 |
| 20260507071004 | 8 | 225 | 3.2 | 4.8 | 0.00 | 0.00 | 0.00 | 76 | 1014.8 |
| 20260507070012 | 8 | 225 | 1.6 | 3.2 | 0.00 | 0.00 | 0.00 | 75 | 1015.1 |
| 20260507065003 | 8 | 225 | 3.2 | 4.8 | 0.00 | 0.05 | 0.00 | 76 | 1015.2 |
| 20260507064003 | 8 | 225 | 1.6 | 3.2 | 0.00 | 0.05 | 0.00 | 75 | 1015.2 |
| 20260507063023 | 8 | 225 | 3.2 | 4.8 | 0.00 | 0.05 | 0.00 | 75 | 1015.3 |
| 20260507062003 | 8 | 203 | 1.6 | 3.2 | 0.00 | 0.05 | 0.00 | 78 | 1015.2 |
| 20260507061003 | 8 | 0.0 | 1.6 | 0.00 | 0.05 | 0.00 | 79 | 1015.2 | |
| 20260507060008 | 8 | 203 | 1.6 | 3.2 | 0.00 | 0.05 | 0.00 | 77 | 1015.2 |
| 20260507055023 | 9 | 225 | 3.2 | 3.2 | 0.00 | 0.05 | 0.00 | 77 | 1015.3 |
| 20260507054023 | 8 | 225 | 1.6 | 1.6 | 0.00 | 0.05 | 0.00 | 77 | 1015.2 |
| 20260507053005 | 8 | 225 | 1.6 | 3.2 | 0.00 | 0.05 | 0.00 | 77 | 1015.3 |
| 20260507052023 | 8 | 225 | 1.6 | 3.2 | 0.00 | 0.05 | 0.00 | 75 | 1015.3 |
| 20260507051003 | 8 | 225 | 3.2 | 3.2 | 0.00 | 0.05 | 0.00 | 76 | 1015.2 |
| 20260507050103 | 8 | 225 | 1.6 | 3.2 | 0.00 | 0.05 | 0.00 | 73 | 1015.3 |
| 20260507045102 | 8 | 225 | 3.2 | 4.8 | 0.00 | 0.05 | 0.05 | 72 | 1015.4 |
| 20260507044102 | 8 | 225 | 3.2 | 4.8 | 0.00 | 0.05 | 0.05 | 74 | 1015.4 |
| 20260507043122 | 7 | 270 | 1.6 | 3.2 | 0.00 | 0.05 | 0.05 | 79 | 1015.3 |
| 20260507042102 | 7 | 293 | 1.6 | 3.2 | 0.00 | 0.05 | 0.05 | 83 | 1015.1 |
| 20260507041102 | 7 | 0.0 | 1.6 | 0.00 | 0.05 | 0.05 | 82 | 1015.2 | |
| 20260507035004 | 7 | 293 | 1.6 | 3.2 | 0.00 | 0.05 | 0.05 | 79 | 1015.5 |
| 20260507034004 | 7 | 293 | 1.6 | 1.6 | 0.00 | 0.05 | 0.05 | 78 | 1015.4 |
| 20260507033004 | 7 | 315 | 3.2 | 3.2 | 0.00 | 0.05 | 0.05 | 78 | 1015.3 |
| 20260507032005 | 7 | 0.0 | 1.6 | 0.00 | 0.05 | 0.05 | 80 | 1015.3 | |
| 20260507031003 | 8 | 0.0 | 0.0 | 0.00 | 0.05 | 0.05 | 78 | 1015.3 | |
| 20260507030029 | 8 | 0.0 | 1.6 | 0.00 | 0.05 | 0.05 | 72 | 1015.3 | |
| 20260507025004 | 8 | 0.0 | 0.0 | 0.00 | 0.05 | 0.05 | 69 | 1015.3 | |
| 20260507024023 | 8 | 0.0 | 0.0 | 0.00 | 0.05 | 0.05 | 69 | 1015.1 | |
| 20260507023004 | 8 | 0.0 | 0.0 | 0.00 | 0.05 | 0.05 | 73 | 1015.1 | |
| 20260507022003 | 8 | 0.0 | 0.0 | 0.00 | 0.05 | 0.05 | 69 | 1014.9 | |
| 20260507021003 | 8 | 0.0 | 0.0 | 0.00 | 0.05 | 0.05 | 68 | 1014.9 | |
| 20260507020029 | 9 | 0.0 | 0.0 | 0.00 | 0.05 | 0.05 | 70 | 1014.8 | |
| 20260507015004 | 9 | 0.0 | 0.0 | 0.00 | 0.05 | 0.05 | 66 | 1014.7 | |
| 20260507014003 | 10 | 0.0 | 0.0 | 0.00 | 0.05 | 0.05 | 63 | 1014.7 | |
| 20260507013004 | 11 | 0.0 | 0.0 | 0.00 | 0.05 | 0.05 | 58 | 1014.7 | |
| 20260507012003 | 12 | 338 | 3.2 | 3.2 | 0.00 | 0.05 | 0.05 | 48 | 1014.5 |
| 20260507010009 | 12 | 338 | 3.2 | 4.8 | 0.00 | 0.05 | 0.05 | 46 | 1014.4 |
| 20260507005023 | 13 | 315 | 4.8 | 6.4 | 0.00 | 0.05 | 0.05 | 46 | 1014.4 |
| 20260507004025 | 13 | 338 | 4.8 | 6.4 | 0.00 | 0.05 | 0.05 | 45 | 1014.4 |
| 20260507003008 | 13 | 338 | 6.4 | 8.0 | 0.00 | 0.05 | 0.05 | 43 | 1014.4 |
| 20260507002003 | 14 | 338 | 4.8 | 6.4 | 0.00 | 0.05 | 0.05 | 41 | 1014.5 |
| 20260507001003 | 14 | 0 | 14.5 | 19.3 | 0.00 | 0.05 | 0.05 | 41 | 1014.4 |
| 20260507000005 | 14 | 0 | 8.0 | 14.5 | 0.00 | 0.05 | 0.05 | 42 | 1014.3 |
| 20260506235023 | 15 | 338 | 14.5 | 17.7 | 0.00 | 0.05 | 0.05 | 39 | 1014.4 |
| 20260506234004 | 15 | 338 | 16.1 | 19.3 | 0.00 | 0.05 | 0.05 | 39 | 1014.5 |
| 20260506233024 | 15 | 338 | 12.9 | 19.3 | 0.00 | 0.05 | 0.05 | 41 | 1014.4 |
| 20260506232024 | 15 | 315 | 12.9 | 16.1 | 0.00 | 0.05 | 0.05 | 45 | 1014.4 |
| 20260506231003 | 15 | 338 | 16.1 | 20.9 | 0.00 | 0.05 | 0.05 | 40 | 1014.4 |
| 20260506230010 | 15 | 338 | 14.5 | 16.1 | 0.00 | 0.05 | 0.05 | 40 | 1014.3 |
| 20260506225003 | 15 | 0 | 11.3 | 17.7 | 0.00 | 0.05 | 0.05 | 40 | 1014.4 |
| 20260506224003 | 15 | 0 | 19.3 | 22.5 | 0.00 | 0.05 | 0.05 | 41 | 1014.5 |
| 20260506223004 | 15 | 0 | 8.0 | 9.7 | 0.00 | 0.05 | 0.05 | 40 | 1014.4 |
| 20260506222003 | 15 | 315 | 9.7 | 14.5 | 0.00 | 0.05 | 0.05 | 42 | 1014.4 |
| 20260506221003 | 15 | 315 | 17.7 | 20.9 | 0.00 | 0.05 | 0.05 | 42 | 1014.6 |
| 20260506220008 | 15 | 338 | 14.5 | 17.7 | 0.00 | 0.05 | 0.05 | 42 | 1014.7 |
| 20260506215003 | 15 | 338 | 19.3 | 24.1 | 0.00 | 0.05 | 0.05 | 40 | 1014.8 |
| 20260506214003 | 15 | 338 | 19.3 | 22.5 | 0.00 | 0.05 | 0.05 | 43 | 1014.9 |
| 20260506213003 | 15 | 23 | 14.5 | 19.3 | 0.00 | 0.05 | 0.05 | 41 | 1015.0 |
| 20260506212003 | 15 | 0 | 9.7 | 14.5 | 0.00 | 0.05 | 0.05 | 41 | 1015.1 |
| 20260506211003 | 15 | 0 | 12.9 | 17.7 | 0.00 | 0.05 | 0.05 | 43 | 1015.1 |
| 20260506210008 | 15 | 0 | 8.0 | 12.9 | 0.00 | 0.08 | 0.05 | 47 | 1015.2 |
| 20260506205003 | 15 | 0 | 14.5 | 16.1 | 0.00 | 0.08 | 0.05 | 43 | 1015.4 |
| 20260506204003 | 15 | 23 | 8.0 | 12.9 | 0.00 | 0.08 | 0.05 | 45 | 1015.5 |
| 20260506203003 | 15 | 23 | 14.5 | 19.3 | 0.00 | 0.08 | 0.05 | 42 | 1015.7 |
| 20260506202024 | 15 | 315 | 19.3 | 24.1 | 0.00 | 0.08 | 0.05 | 40 | 1015.7 |
| 20260506201003 | 15 | 45 | 8.0 | 9.7 | 0.00 | 0.08 | 0.05 | 42 | 1015.7 |
| 20260506200008 | 15 | 23 | 11.3 | 17.7 | 0.00 | 0.13 | 0.05 | 45 | 1015.9 |
| 20260506195003 | 14 | 315 | 6.4 | 8.0 | 0.00 | 0.13 | 0.05 | 42 | 1015.9 |
| 20260506194003 | 14 | 45 | 16.1 | 20.9 | 0.00 | 0.13 | 0.05 | 44 | 1015.9 |
| 20260506193004 | 13 | 338 | 6.4 | 8.0 | 0.00 | 0.13 | 0.05 | 46 | 1016.0 |
| 20260506192003 | 13 | 23 | 9.7 | 12.9 | 0.00 | 0.13 | 0.05 | 48 | 1016.0 |
| 20260506191003 | 13 | 0 | 3.2 | 6.4 | 0.00 | 0.13 | 0.05 | 43 | 1016.2 |
| 20260506190005 | 13 | 0 | 14.5 | 17.7 | 0.00 | 0.20 | 0.05 | 45 | 1016.2 |
| 20260506185002 | 13 | 315 | 17.7 | 24.1 | 0.00 | 0.20 | 0.05 | 46 | 1016.3 |
| 20260506184002 | 13 | 0 | 12.9 | 16.1 | 0.00 | 0.20 | 0.05 | 46 | 1016.5 |
| 20260506183003 | 13 | 315 | 16.1 | 20.9 | 0.00 | 0.20 | 0.05 | 46 | 1016.5 |
| 20260506182023 | 13 | 338 | 8.0 | 12.9 | 0.00 | 0.20 | 0.05 | 47 | 1016.6 |
| 20260506181002 | 13 | 338 | 17.7 | 20.9 | 0.00 | 0.20 | 0.05 | 46 | 1016.5 |
| 20260506180025 | 12 | 0 | 12.9 | 16.1 | 0.00 | 0.28 | 0.05 | 47 | 1016.7 |
| 20260506175002 | 12 | 315 | 12.9 | 16.1 | 0.00 | 0.28 | 0.05 | 46 | 1016.8 |
| 20260506174003 | 13 | 338 | 22.5 | 24.1 | 0.00 | 0.28 | 0.05 | 46 | 1016.9 |
| 20260506173003 | 12 | 338 | 8.0 | 12.9 | 0.00 | 0.28 | 0.05 | 47 | 1016.9 |
| 20260506172003 | 12 | 338 | 19.3 | 25.7 | 0.00 | 0.28 | 0.05 | 47 | 1017.0 |
| 20260506171022 | 12 | 315 | 20.9 | 22.5 | 0.00 | 0.28 | 0.05 | 48 | 1017.0 |
| 20260506170026 | 12 | 0 | 19.3 | 24.1 | 0.00 | 0.74 | 0.05 | 48 | 1016.9 |
| 20260506165002 | 12 | 0 | 19.3 | 27.4 | 0.00 | 0.74 | 0.05 | 49 | 1016.8 |
| 20260506164004 | 12 | 315 | 11.3 | 16.1 | 0.00 | 0.74 | 0.05 | 45 | 1016.9 |
| 20260506163003 | 12 | 315 | 17.7 | 24.1 | 0.00 | 0.74 | 0.05 | 48 | 1016.8 |
| 20260506162003 | 12 | 0 | 17.7 | 24.1 | 0.00 | 0.74 | 0.05 | 49 | 1016.6 |
| 20260506161002 | 12 | 338 | 16.1 | 20.9 | 0.00 | 0.74 | 0.05 | 47 | 1016.5 |